Hourly Weather Goldsboro

Today, 17 May, Monday

Time Temperature Precipitation Wind Pressure Humidity
00:00 +18°C° 0 mm 2 mps 765 mmHg 59%
01:00 +19°C° 0 mm 1 mps 765 mmHg 62%
02:00 +19°C° 0 mm 1 mps 765 mmHg 63%
03:00 +19°C° 0 mm 1 mps 765 mmHg 64%
04:00 +18°C° 0 mm 1 mps 765 mmHg 66%
05:00 +19°C° 0 mm 1 mps 765 mmHg 67%
06:00 +19°C° 0 mm 1 mps 766 mmHg 69%
07:00 +19°C° 0 mm 1 mps 766 mmHg 71%
08:00 +19°C° 0 mm 1 mps 766 mmHg 70%
09:00 +20°C° 0 mm 1 mps 766 mmHg 69%
10:00 +20°C° 0 mm 1 mps 767 mmHg 68%
11:00 +21°C° 0 mm 1 mps 766 mmHg 64%
12:00 +23°C° 0 mm 1 mps 766 mmHg 59%
13:00 +24°C° 0 mm 1 mps 766 mmHg 54%
14:00 +24°C° 0 mm 1 mps 766 mmHg 53%
15:00 +25°C° 0 mm 1 mps 765 mmHg 52%
16:00 +25°C° 0 mm 1 mps 765 mmHg 52%
17:00 +23°C° 0.1 mm 2 mps 766 mmHg 59%
18:00 +20°C° 0.1 mm 3 mps 766 mmHg 67%
19:00 +19°C° 0.1 mm 3 mps 766 mmHg 75%
20:00 +19°C° 0 mm 3 mps 766 mmHg 75%
21:00 +18°C° 0 mm 3 mps 767 mmHg 76%
22:00 +18°C° 0 mm 2 mps 767 mmHg 76%
23:00 +18°C° 0 mm 2 mps 767 mmHg 76%

Tomorrow, 18 May, Tuesday

Time Temperature Precipitation Wind Pressure Humidity
00:00 +18°C° 0 mm 2 mps 767 mmHg 76%
01:00 +18°C° 0 mm 2 mps 767 mmHg 76%
02:00 +17°C° 0.1 mm 2 mps 767 mmHg 77%
03:00 +17°C° 0.1 mm 2 mps 767 mmHg 78%
04:00 +17°C° 0.1 mm 2 mps 767 mmHg 80%
05:00 +17°C° 0.1 mm 2 mps 767 mmHg 81%
06:00 +17°C° 0.1 mm 2 mps 768 mmHg 82%
07:00 +17°C° 0.1 mm 2 mps 768 mmHg 83%
08:00 +17°C° 0 mm 2 mps 768 mmHg 79%
09:00 +18°C° 0 mm 2 mps 769 mmHg 75%
10:00 +20°C° 0 mm 1 mps 769 mmHg 71%
11:00 +20°C° 0 mm 2 mps 769 mmHg 66%
12:00 +21°C° 0 mm 2 mps 768 mmHg 61%
13:00 +23°C° 0 mm 2 mps 768 mmHg 57%
14:00 +23°C° 0 mm 2 mps 768 mmHg 55%
15:00 +24°C° 0 mm 2 mps 767 mmHg 53%
16:00 +24°C° 0 mm 2 mps 767 mmHg 51%
17:00 +23°C° 0 mm 2 mps 767 mmHg 56%
18:00 +22°C° 0 mm 1 mps 767 mmHg 61%
19:00 +21°C° 0 mm 1 mps 767 mmHg 66%
20:00 +19°C° 0 mm 2 mps 767 mmHg 70%
21:00 +18°C° 0 mm 2 mps 768 mmHg 73%
22:00 +17°C° 0 mm 2 mps 768 mmHg 77%
23:00 +17°C° 0 mm 2 mps 768 mmHg 81%

Day after tomorrow, 19 May, Wednesday

Time Temperature Precipitation Wind Pressure Humidity
00:00 +16°C° 0 mm 2 mps 768 mmHg 85%
01:00 +16°C° 0 mm 2 mps 768 mmHg 89%
02:00 +16°C° 0 mm 1 mps 768 mmHg 90%
03:00 +16°C° 0 mm 1 mps 768 mmHg 90%
04:00 +15°C° 0 mm 1 mps 768 mmHg 91%
05:00 +16°C° 0 mm 1 mps 768 mmHg 87%
06:00 +19°C° 0 mm 1 mps 768 mmHg 84%
07:00 +20°C° 0 mm 1 mps 769 mmHg 80%
08:00 +22°C° 0 mm 1 mps 769 mmHg 70%
09:00 +24°C° 0 mm 2 mps 769 mmHg 60%
10:00 +25°C° 0 mm 2 mps 769 mmHg 50%
11:00 +26°C° 0 mm 2 mps 769 mmHg 45%
12:00 +27°C° 0 mm 2 mps 769 mmHg 41%
13:00 +28°C° 0 mm 2 mps 768 mmHg 36%
14:00 +29°C° 0 mm 2 mps 768 mmHg 36%
15:00 +29°C° 0 mm 1 mps 768 mmHg 35%
16:00 +29°C° 0 mm 1 mps 767 mmHg 35%
17:00 +27°C° 0 mm 2 mps 767 mmHg 43%
18:00 +25°C° 0 mm 2 mps 767 mmHg 50%
19:00 +23°C° 0 mm 2 mps 767 mmHg 58%
20:00 +21°C° 0 mm 2 mps 768 mmHg 63%
21:00 +20°C° 0 mm 2 mps 768 mmHg 69%
22:00 +19°C° 0 mm 3 mps 769 mmHg 74%
23:00 +18°C° 0 mm 2 mps 769 mmHg 77%

20 May, Thursday

Time Temperature Precipitation Wind Pressure Humidity
00:00 +18°C° 0 mm 2 mps 769 mmHg 79%
01:00 +17°C° 0 mm 2 mps 769 mmHg 82%
02:00 +17°C° 0 mm 2 mps 769 mmHg 83%
03:00 +18°C° 0 mm 1 mps 769 mmHg 85%
04:00 +16°C° 0 mm 1 mps 769 mmHg 86%
05:00 +18°C° 0 mm 1 mps 769 mmHg 82%
06:00 +20°C° 0 mm 1 mps 770 mmHg 78%
07:00 +21°C° 0 mm 1 mps 770 mmHg 73%
08:00 +21°C° 0 mm 0 mps 770 mmHg 66%
09:00 +23°C° 0 mm 0 mps 770 mmHg 59%
10:00 +25°C° 0 mm 0 mps 770 mmHg 52%
11:00 +28°C° 0 mm 1 mps 770 mmHg 48%
12:00 +29°C° 0 mm 1 mps 770 mmHg 43%
13:00 +30°C° 0 mm 2 mps 769 mmHg 39%
14:00 +30°C° 0 mm 2 mps 769 mmHg 38%
15:00 +30°C° 0 mm 1 mps 768 mmHg 38%
16:00 +30°C° 0 mm 1 mps 768 mmHg 37%
17:00 +28°C° 0 mm 1 mps 768 mmHg 43%
18:00 +26°C° 0 mm 1 mps 768 mmHg 48%
19:00 +25°C° 0 mm 1 mps 768 mmHg 54%
20:00 +23°C° 0 mm 2 mps 768 mmHg 56%
21:00 +21°C° 0 mm 2 mps 769 mmHg 58%
22:00 +19°C° 0 mm 3 mps 769 mmHg 61%
23:00 +19°C° 0 mm 2 mps 769 mmHg 63%

21 May, Friday

Time Temperature Precipitation Wind Pressure Humidity
00:00 +18°C° 0 mm 2 mps 769 mmHg 66%
01:00 +17°C° 0 mm 2 mps 769 mmHg 68%
02:00 +17°C° 0 mm 2 mps 769 mmHg 70%
03:00 +17°C° 0 mm 2 mps 769 mmHg 72%
04:00 +17°C° 0 mm 2 mps 769 mmHg 74%
05:00 +18°C° 0 mm 2 mps 769 mmHg 71%
06:00 +19°C° 0 mm 2 mps 770 mmHg 68%
07:00 +20°C° 0 mm 2 mps 770 mmHg 65%
08:00 +23°C° 0 mm 2 mps 770 mmHg 59%
09:00 +25°C° 0 mm 2 mps 770 mmHg 53%
10:00 +28°C° 0 mm 2 mps 770 mmHg 47%
11:00 +29°C° 0 mm 2 mps 769 mmHg 43%
12:00 +30°C° 0 mm 1 mps 769 mmHg 39%
13:00 +32°C° 0 mm 1 mps 768 mmHg 35%
14:00 +32°C° 0 mm 1 mps 768 mmHg 34%
15:00 +32°C° 0 mm 1 mps 767 mmHg 33%
16:00 +30°C° 0 mm 0 mps 767 mmHg 32%
17:00 +30°C° 0 mm 1 mps 767 mmHg 37%
18:00 +29°C° 0 mm 1 mps 767 mmHg 41%
19:00 +27°C° 0 mm 1 mps 766 mmHg 46%
20:00 +26°C° 0 mm 2 mps 766 mmHg 47%
21:00 +25°C° 0 mm 2 mps 767 mmHg 47%
22:00 +25°C° 0 mm 2 mps 767 mmHg 48%
23:00 +24°C° 0 mm 2 mps 766 mmHg 50%

22 May, Saturday

Time Temperature Precipitation Wind Pressure Humidity
00:00 +23°C° 0 mm 2 mps 766 mmHg 53%
01:00 +23°C° 0 mm 2 mps 766 mmHg 55%
02:00 +23°C° 0 mm 2 mps 766 mmHg 57%
03:00 +21°C° 0 mm 2 mps 765 mmHg 59%
04:00 +21°C° 0 mm 2 mps 765 mmHg 60%
05:00 +23°C° 0 mm 2 mps 765 mmHg 61%
06:00 +23°C° 0 mm 2 mps 765 mmHg 62%
07:00 +24°C° 0 mm 2 mps 765 mmHg 63%
08:00 +25°C° 0 mm 2 mps 765 mmHg 59%
09:00 +27°C° 0 mm 2 mps 765 mmHg 55%
10:00 +29°C° 0 mm 2 mps 765 mmHg 51%
11:00 +30°C° 0 mm 3 mps 764 mmHg 48%
12:00 +31°C° 0 mm 3 mps 764 mmHg 46%
13:00 +33°C° 0 mm 3 mps 763 mmHg 44%
14:00 +33°C° 0 mm 3 mps 763 mmHg 46%
15:00 +33°C° 0 mm 3 mps 762 mmHg 47%
16:00 +31°C° 0 mm 2 mps 761 mmHg 48%
17:00 +29°C° 0.1 mm 2 mps 761 mmHg 57%
18:00 +28°C° 0.1 mm 3 mps 762 mmHg 65%
19:00 +26°C° 0.1 mm 3 mps 762 mmHg 73%
20:00 +24°C° 0.6 mm 2 mps 762 mmHg 79%
21:00 +23°C° 0.6 mm 2 mps 762 mmHg 86%
22:00 +22°C° 0.6 mm 1 mps 762 mmHg 92%
23:00 +22°C° 0 mm 1 mps 762 mmHg 92%
Show more